{"data":{"norad_id":55472,"intl_designator":"2023-015Z","name":"STARLINK-5705","alt_names":[],"object_type":"PAYLOAD","status":"ACTIVE","operator":null,"country":"US","launch_date":"2023-02-02","launch_site_code":"AFETR","launch_vehicle":null,"mission":null,"orbit_class":"UNKNOWN","rcs_meters":null,"size_class":null,"mass_kg":null,"dimensions":null,"purposes":["comms"],"wikipedia_slug":null,"has_3d_model":false,"image_url":null,"decayed_at":null,"tle_current":{"epoch":"2026-05-25T00:20:06.881856Z","epoch_age_seconds":77052,"freshness":"FRESH","line1":"1 55472U 23015Z   26145.01396854 -.00002772  00000+0 -91226-4 0  9991","line2":"2 55472  43.0036 250.7519 0002671 266.3996  93.6551 15.27576819182479","mean_motion":15.27576819,"eccentricity":0.0002671,"inclination_deg":43.0036,"raan_deg":250.7519,"arg_perigee_deg":266.3996,"mean_anomaly_deg":93.6551,"bstar":-9.1226e-5,"rev_number":18247,"period_min":94.266945013127,"perigee_km":481.22599576414,"apogee_km":484.89124646494,"semimajor_km":6861.1956211145,"source":"CELESTRAK","updated_at":"2026-05-25T13:38:17.807454Z"}}}